Location: Kalberh�ni
(46.4610°N, 7.2453°E)
Time: 04:42:02
(UTC+00:00)

Cosmos 1802 Rocket - Pass Details

Date: 28 October 2021
Orbit: 955 x 1010 km, 82.9° (Epoch: 05 December)

Event Time Altitude Azimuth Distance (km) Brightness Sun altitude
Rises 20:20:24 0° 232° (SW) 3,624 7.2 -40.8°
Reaches altitude 10° 20:23:34 10° 248° (WSW) 2,684 6.6 -41.3°
Maximum altitude 20:28:03 21° 295° (WNW) 2,025 6.1 -42.0°
Drops below altitude 10° 20:32:34 10° 343° (NNW) 2,709 6.7 -42.6°
Sets 20:35:49 0° 359° (N) 3,668 7.3 -43.1°
